Lid_Strength_Index
-0 1 1 3 11 11 13 12 8 9 9 6 5 7 8 7 9 12 2 1 0 0 -0 -1 -2 -2 -2 -2 -2 -2 -1 -1 -2 -2 -2 -1 -1 -1 -2 -2 -1 -2 -2 -2 -2 -2 -2 -1 -2
-0 2 2 6 13 16 14 9 10 8 6 5 5 6 7 9 5 4 3 0 -0 -0 -0 -0 -1 -2 -2 -2 -2 -2 -1 -1 -2 -2 -2 -1 -1 -2 -2 -2 -1 -2 -2 -2 -1 -2 -2 -2 -2
0 1 7 10 13 15 14 9 9 7 5 6 6 5 6 7 4 3 1 0 -0 0 -0 -0 -2 -2 -2 -2 -1 -2 -2 -1 -1 -1 -1 -2 -1 -2 -2 -2 -2 -2 -1 -2 -1 -1 -1 -2 -2
2 4 6 12 14 10 9 9 7 7 5 5 5 8 5 2 3 2 0 -0 0 0 0 -1 -2 -2 -2 -1 -2 -2 -1 -1 -2 -1 -1 -1 -2 -2 -2 -2 -2 -2 -2 -1 -2 -2 -1 -2 -2
2 6 12 13 12 10 8 7 6 7 7 6 5 8 7 3 1 1 1 0 1 0 -0 -0 -2 -2 -2 -2 -2 -2 -2 -1 -1 -1 -2 -2 -2 -2 -2 -2 -2 -2 -2 -1 -2 -1 -1 -1 -1
7 7 13 14 11 8 7 6 6 6 6 6 6 7 6 2 2 1 0 0 -0 0 -0 -0 -1 -2 -2 -2 -2 -1 -2 -1 -1 -1 -1 -2 -2 -2 -2 -2 -2 -1 -2 -2 -1 -1 -1 -1 -1
8 10 12 11 10 10 8 5 7 7 7 7 5 8 5 3 1 1 1 0 -0 -0 -0 -0 -0 -1 -2 -2 -2 -2 -1 -1 -1 -1 -2 -1 -2 -2 -2 -1 -2 -2 -2 -1 -1 -1 -1 -1 -1
6 9 11 11 11 10 6 6 5 6 7 3 3 8 8 4 1 1 1 1 0 0 -0 0 -0 -0 0 -0 -2 -2 -1 -1 -1 -1 -1 -2 -2 -2 -2 -2 -2 -1 -1 -1 -1 -1 -1 -1 -2
4 11 12 11 10 9 6 7 5 4 5 4 4 4 3 2 1 2 2 2 1 1 0 0 -0 0 0 -0 -1 -1 -1 -2 -1 -1 -1 -1 -0 0 -1 -1 -2 -1 -1 -1 -1 -1 -1 -1 -2
8 11 9 7 7 8 6 6 6 6 6 6 5 3 2 2 2 3 3 3 2 2 1 0 0 0 0 -0 -0 0 -0 -0 -0 -0 0 0 0 0 -1 -1 -1 -1 -1 -1 -1 -1 -1 -1 -1
7 11 8 6 6 5 6 6 5 6 8 6 6 5 3 3 3 3 3 3 2 1 1 0 0 0 0 0 0 0 0 0 0 0 -0 -0 -0 0 0 0 -0 -0 -1 -0 -1 -1 -1 -1 -1
8 6 6 5 5 6 6 5 6 6 6 4 4 3 3 4 3 3 3 2 2 2 1 1 0 0 0 -0 -0 -0 -0 0 0 -0 0 -0 1 1 0 0 0 0 0 0 -0 -0 -0 -0 -1
7 6 6 5 5 5 5 6 7 6 4 3 3 3 4 4 3 2 2 2 2 2 1 1 0 0 1 0 -0 -0 0 -0 -0 0 -0 0 1 1 0 0 0 0 -0 0 0 0 0 0 -1
6 6 6 6 6 5 7 6 6 5 4 4 4 4 4 4 3 3 2 2 2 1 1 1 1 1 0 0 1 0 -0 -0 0 -0 0 0 1 0 1 1 0 0 0 0 0 1 1 1 0
6 8 7 7 6 6 6 8 8 5 4 5 5 4 4 4 3 3 2 2 2 2 1 1 0 1 1 1 1 0 0 -0 0 0 0 -0 -0 0 1 1 1 1 0 0 1 2 2 1 0
8 8 11 7 6 6 7 12 7 5 5 6 5 4 4 4 3 3 2 2 2 2 1 1 0 1 1 1 1 1 0 -0 0 0 -0 0 0 0 0 0 1 0 -0 0 2 1 0 1 0
9 12 11 9 6 7 8 11 7 5 5 6 5 5 4 4 3 3 2 2 1 1 1 2 1 1 1 1 1 1 0 -0 0 0 0 -0 0 -0 0 0 0 0 0 0 2 1 0 1 1
11 11 11 11 8 7 9 9 7 6 6 6 5 5 5 5 4 3 2 2 1 1 1 2 1 1 1 1 2 1 1 1 0 -0 0 -0 0 -0 0 0 0 0 0 1 0 1 1 1 1
9 9 10 9 7 8 9 9 8 6 6 6 6 5 5 5 3 3 2 2 1 1 2 2 2 2 1 1 2 2 2 2 1 0 0 -0 0 -0 0 0 0 0 1 1 1 1 1 1 1
9 10 10 8 8 9 9 9 8 7 6 6 6 6 5 5 4 3 3 2 2 2 2 1 1 1 1 1 1 1 1 1 1 0 0 -0 -0 -0 0 0 0 0 0 1 1 1 1 2 1
11 11 11 9 9 8 9 12 9 7 6 6 5 5 5 5 4 4 3 3 2 2 2 2 1 1 1 1 1 1 1 1 1 1 1 0 0 -0 0 1 0 0 1 1 1 2 2 3 2
11 9 9 9 12 14 10 15 12 9 8 7 6 6 5 4 4 3 3 3 2 2 1 1 1 1 1 1 1 2 2 3 2 1 0 0 0 0 0 1 1 0 0 1 1 1 1 2 3
10 9 10 9 12 14 12 13 13 10 10 8 7 6 5 4 4 4 3 3 2 2 2 1 1 1 1 1 1 1 2 2 2 2 1 1 0 -0 0 0 1 1 0 1 1 1 1 1 2
8 10 11 13 14 16 13 12 13 11 9 8 7 6 5 5 4 4 3 3 2 2 2 1 2 2 1 1 1 1 2 2 2 2 2 1 1 0 0 -0 0 0 0 0 0 1 1 1 1
10 14 16 16 17 16 14 12 12 9 7 7 7 7 5 6 4 4 5 3 3 2 2 2 2 2 1 1 1 1 1 1 2 2 2 2 1 1 1 0 0 0 0 0 1 1 1 2 2
11 13 16 17 17 15 13 14 12 8 7 7 7 7 5 5 5 4 3 3 3 2 2 2 2 2 2 1 1 1 1 1 1 1 2 3 4 2 0 1 0 0 0 0 0 1 1 1 1
12 13 12 15 15 16 15 12 10 8 8 8 8 8 7 5 5 5 4 3 3 3 3 2 2 2 2 1 1 1 1 1 1 1 1 1 2 1 1 1 2 3 1 0 0 1 1 1 1
10 10 14 15 16 18 14 14 13 11 10 8 7 7 6 5 5 4 4 3 3 2 2 2 2 2 1 1 1 1 1 1 1 1 2 1 1 1 2 2 4 4 2 0 0 1 1 1 1
12 13 13 14 14 15 17 14 10 10 9 8 7 7 6 6 5 4 4 3 3 2 2 2 2 3 3 1 1 1 1 1 1 1 1 1 1 1 2 3 3 3 3 2 1 1 1 1 1
11 12 13 15 16 15 14 13 9 8 7 7 7 6 6 5 5 5 4 3 3 3 2 2 2 2 4 1 1 1 1 1 1 1 1 1 1 1 2 3 3 1 1 2 1 1 1 1 2